Regional Weather Roundup
Issued by NWS Charleston, SC

Current Version | Previous Version | Graphics & Text | Print | Product List | Glossary On
Versions: 1 2 3 4 5 6 7 8 9 10 11 12 13 14 15 16 17 18 19 20 21 22 23 24 25 26 27 28 29 30 31 32 33 34 35 36 37 38 39 40 41 42 43 44 45 46 47 48 49 50
000 ASUS42 KCHS 250910 RWRCHS REGIONAL WEATHER ROUNDUP NATIONAL WEATHER SERVICE CHARLESTON SC 400 AM EST THU DEC 25 2014 NOTE: "FAIR" INDICATES FEW OR NO CLOUDS BELOW 12,000 FEET WITH NO SIGNIFICANT WEATHER AND/OR OBSTRUCTIONS TO VISIBILITY. NOT ALL STATIONS ARE QUALITY CONTROLLED BY THE NATIONAL WEATHER SERVICE. USE DATA WITH CAUTION...ESPECIALLY DEWPOINT OBSERVATIONS. SCZ027-030-031-034>040-042>050-251000- ...SOUTHEAST SOUTH CAROLINA... CITY SKY/WX TMP DP RH WIND PRES REMARKS N CHARLESTON CLOUDY 57 49 74 W15 29.90R WATERFRONT PRK N/A 61 N/A N/A W12 N/A MOUNT PLEASANT PTSUNNY 61 54 77 W15G21 29.91R PINOPOLIS N/A 59 52 77 W22 29.83R MONCKS CORNER CLOUDY 57 48 72 W9G21 29.90R SUMMERVILLE PTSUNNY 55 46 71 W6 29.93R BEAUFORT MCAS CLOUDY 56 47 71 W12 29.95R BEAUFORT ARPT CLOUDY 55 52 88 W13G22 29.94R HILTON HEAD IS CLOUDY 55 48 76 W10G22 29.96R WALTERBORO PTSUNNY 55 41 58 W15G26 29.94R ALLENDALE CLOUDY 54 45 71 VRB6 29.96R ...SOUTHERN MIDLANDS AND PEE DEE... CITY SKY/WX TMP DP RH WIND PRES REMARKS GEORGETOWN NOT AVBL KINGSTREE NOT AVBL ORANGEBURG CLOUDY 53 40 61 W12 29.92R BARNWELL PTSUNNY 52 43 71 W8 29.96R AIKEN FAIR 50 41 71 W10 29.97R MANNING CLOUDY 55 45 67 W8G17 29.89R COLUMBIA CLOUDY 52 41 66 W14 29.90R SUMTER CLOUDY 51 44 74 W14G21 29.87R FLORENCE CLOUDY 55 45 68 W17G25 29.84R MYRTLE BEACH CLOUDY 64 55 72 W23G33 29.84R N MYRTLE BEACH LGT RAIN 63 61 93 SW10 29.81R $$ GAZ063-065-086>088-099>101-113>116-118-119-134>141-150-251000- ...SOUTHEAST GEORGIA... CITY SKY/WX TMP DP RH WIND PRES REMARKS SAVANNAH ARPT CLOUDY 54 46 74 W12G18 29.98R HUNTER AAF CLOUDY 54 50 86 W14 29.95R FORT STEWART CLOUDY 54 46 75 W10 29.98R STATESBORO CLOUDY 53 48 83 NW12G17 30.00R SYLVANIA CLOUDY 53 48 84 W8 29.99R CLAXTON CLOUDY 52 46 82 W10G16 30.01R ...CSRA...CENTRAL AND FAR SOUTHEAST GEORGIA... CITY SKY/WX TMP DP RH WIND PRES REMARKS THOMSON CLOUDY 51 46 84 W6 30.01R AUGUSTA-BUSH MOCLDY 51 42 71 W10 29.97R AUGUSTA-DANIEL MOCLDY 51 42 71 W8 29.97R SWAINSBORO FAIR 54 48 82 W7 30.00R VIDALIA CLOUDY 52 45 76 W6 30.02R EASTMAN FAIR 51 46 83 W7 30.05R HAZLEHURST FAIR 53 47 79 W3 30.01R ALMA CLOUDY 53 44 71 W10 30.01R WAYCROSS CLOUDY 56 49 78 NW9 30.02R JESUP CLOUDY 55 50 82 NW8 30.02R BAXLEY CLOUDY 54 45 71 W8 30.00S BRUNSWICK CLOUDY 55 46 71 W10 30.00R SAINT SIMONS CLOUDY 55 45 68 W8 29.98S $$ SCZ027-028-034-036>038-045-046-048>050-GAZ119-141-251000- ...LAKE AND SUPPLEMENTAL COASTAL OBSERVATIONS... STATION/POSITION TIME TEMP WIND PRES WAVE SWELL AIR SEA DIR/SP/G HT/PER HT/PER/DIR (UTC) (F) (DEG/KT/KT) (MB) (FT/S) (FT/S/D) UPR LAKE MARION NOT AVBL WINYAH BAY 0800 65 230/ 7 1008.0S LAKE MURRAY 0800 51 260/ 16/ 21 1011.5R ACE BASIN NERRS NOT AVBL FORT PULASKI 0900 55 56 280/ 19/ 22 1014.7R SAPELO ISLAND 0800 56 280/ 13 1014.0S $$ ANZ835-935-AMZ111-154-330-350-352-354-370-450-454-472-251000- ...C-MAN AND BUOY OBSERVATIONS... STATION/POSITION TIME TEMP WIND PRES WAVE SWELL AIR SEA DIR/SP/G HT/PER HT/PER/DIR (UTC) (F) (DEG/KT/KT) (MB) (FT/S) (FT/S/D) BUOY 41004 0900 66 72 270/ 25/ 31 1010.8R 7/ 7 5/ 7 BUOY 41008 0900 57 59 290/ 17/ 23 1014.3R 4/ 4 2/150/ 7 FOLLY BEACH CMAN 0800 60 270/ 9/ 13 1012.0R CAPERS NEARSHORE 0800 58 260/ 14/ 17 N/A FRIPP NEARSHORE NOT AVBL STATION/POSITION TIME TEMP WIND PRES WAVE SWELL AIR SEA DIR/SP/G HT/PER HT/PER/DIR (UTC) (F) (DEG/KT/KT) (MB) (FT/S) (FT/S/D) 5E ST. MARYS GA 0900 61 N/A 3/ 6 FRYING PAN BUOY 0900 69 71 230/ 19/ 23 1009.6R 7/ 7 2/240/16 BUOY 41025 0900 71 1006.9S 9/ 7 CAPE LOOKOUT NC 0800 63 230/ 9/ 16 1007.7S BUOY 41002 0756 75 72 210/ 21/ 25 1013.2 8/ 6 BUOY 41010 0900 71 77 290/ 19/ 23 1015.5R 6/ 7 2/ 70/10 ST AUGUSTINE FL 0900 59 290/ 6/ 9 1016.1R $$

USA.gov is the U.S. government's official web portal to all federal, state and local government web resources and services.